Regional Weather Roundup
Issued by NWS Grand Forks, ND

Home | Current Version | Previous Version | Text Only | Print | Product List | Glossary Off
Versions: 1 2 3 4 5 6 7 8 9 10 11 12 13 14 15 16 17 18 19 20 21 22 23 24 25 26 27 28 29 30 31 32 33 34 35 36 37 38 39 40 41 42 43 44 45 46 47 48 49 50

000
ASUS43 KFGF 310031
RWRFGF
PRAIRIE TO PINES  WEATHER ROUNDUP
NATIONAL WEATHER SERVICE EASTERN NORTH DAKOTA/GRAND FORKS ND
700 PM CDT THU OCT 30 2014

 **SATELLITE DATA USED TO AUGMENT SKY COVER AT AUTOMATED STATIONS**
 *****  WEATHER ACROSS EASTERN NORTH DAKOTA  *****

CITY           SKY/WX    TMP DP  RH WIND       PRES   REMARKS
GRAND FORKS    PTCLDY    34  16  47 N15       30.47R WCI  24
6HR MIN TEMP:  34; 6HR MAX TEMP:  40;

GRAND FRKS AFB CLEAR     33  14  46 N13       30.48R WCI  23
GRAND FRKS NWS   N/A     32 N/A N/A N9          N/A  WCI  24
DEVILS LAKE    CLEAR     28  14  54 N10       30.48R WCI  19
6HR MIN TEMP:  30; 6HR MAX TEMP:  37;

FARGO          CLEAR     33  22  63 N13       30.44R WCI  24
WAHPETON ARPT  PTCLDY    32  21  64 N15G23    30.44R WCI  22
$$

 ***** WEATHER ACROSS CENTRAL AND WESTERN NORTH DAKOTA  *****

CITY           SKY/WX    TMP DP  RH WIND       PRES   REMARKS
BISMARCK       CLOUDY    35  28  75 NE9       30.51R
6HR MIN TEMP:  35; 6HR MAX TEMP:  37;

MINOT          CLEAR     25  19  78 CALM      30.52R
6HR MIN TEMP:  25; 6HR MAX TEMP:  34;

JAMESTOWN      NOT AVBL
MINOT AFB      CLEAR     27  21  78 NW6       30.52R WCI  21
GARRISON         N/A     31  24  75 NE7       30.51R WCI  24
WILLISTON      CLOUDY    36  29  75 E8        30.49R
6HR MIN TEMP:  36; 6HR MAX TEMP:  38;

DICKINSON      CLOUDY    33  29  85 NE7       30.45R
6HR MIN TEMP:  33; 6HR MAX TEMP:  38;

HETTINGER      CLOUDY    35  29  78 E7        30.46R
6HR MIN TEMP:  35; 6HR MAX TEMP:  38;

$$

 *****  OTHER AIRPORT OBSERVATIONS IN OUR AREA  *****

CITY           SKY/WX    TMP DP  RH WIND       PRES   REMARKS
WALHALLA       FAIR      30  18  59 N12       30.54R WCI  21
GRAFTON AIRPOR FAIR      32  19  59 N10       30.50R WCI  24
VALLEY CITY AR FAIR      30  21  69 N9        30.47R WCI  22
CANDO          FAIR      27  18  69 N7        30.52R WCI  19
CAVALIER APRT  FAIR      32  18  55 N13       30.52R WCI  22
GWINNER        CLOUDY    34  23  64 N9        30.47R
SHEYENNE NWR     N/A     34  20  56 N8        29.95
ROLLA          FAIR      25  16  68 N9        30.52R WCI  15
 ***** THE ABOVE OBSERVATIONS ARE NON NWS ARE NOT QUALITY
       CONTROLLED AND MAY MIS-REPORT RAIN FOR SNOW...
$$

  *****  WEATHER ACROSS NORTHERN MINNESOTA  *****

CITY           SKY/WX    TMP DP  RH WIND       PRES   REMARKS
FLAG ISLAND    MOCLDY    32  23  69 N25G31    30.42R WCI  19
WARROAD        FAIR      30  18  59 NW9G18    30.44R WCI  22
ROSEAU         CLEAR     30  19  64 N13       30.45R WCI  20
HALLOCK        CLEAR     30  19  64 N10       30.50R WCI  21
THF RVR FALLS  CLEAR     30  19  64 N16       30.45R WCI  19
BAUDETTE       PTCLDY    31  17  56 N21G30    30.38R WCI  18
6HR MIN TEMP:  30; 6HR MAX TEMP:  37; 6HR PCP: TRACE;

WASKISH        PTCLDY    30  18  59 N13       30.38R WCI  20
CROOKSTON      CLEAR     30  21  69 N10       30.48R WCI  21
STEPHEN NDAWN    N/A     30  23  74 N12         N/A  WCI  21
GREENBUSH NDAW   N/A     30  19  64 N14         N/A  WCI  20
$$
  *****  WEATHER ACROSS CENTRAL AND WEST MINNESOTA  *****

CITY           SKY/WX    TMP DP  RH WIND       PRES   REMARKS
FOSSTON        CLEAR     28  21  74 N17       30.41R WCI  16
BEMIDJI        PTCLDY    31  16  54 N16G28    30.36R WCI  19
PARK RAPIDS    PTCLDY    33  16  49 N18G25    30.32R WCI  22
6HR MIN TEMP:  32; 6HR MAX TEMP:  38;

ELBOW LAKE     CLOUDY    34  25  70 N18G25    30.38R WCI  23
6HR MIN TEMP:  34; 6HR MAX TEMP:  42;

WADENA         FAIR      30  19  64 NW15      30.34R WCI  19
DETROIT LAKES  PTCLDY    32  25  74 N15       30.39R WCI  22
MOORHEAD       CLEAR     34  25  69 N12G18    30.45R
FERGUS FALLS   PTCLDY    32  19  59 N12G23    30.42R WCI  23
MORRIS MN      CLOUDY    36  27  69 MISG      30.36R
STAPLES        CLOUDY    30  19  64 NW13G20   30.32R WCI  20
$$
  *****  WEATHER ELSEWHERE ACROSS MINNESOTA  *****

CITY           SKY/WX    TMP DP  RH WIND       PRES   REMARKS
DULUTH         LGT SNOW  34  25  69 NW10G28   30.17R
6HR MIN TEMP:  33; 6HR MAX TEMP:  42; 6HR PCP:  0.01;

INTRNTL FALLS  PTCLDY    28  19  69 N14       30.32R WCI  17
6HR MIN TEMP:  28; 6HR MAX TEMP:  39; 6HR PCP:  0.04;

ELY            CLOUDY    28  23  80 NW10G23   30.20R WCI  19
CLOQUET        MOCLDY    34  21  60 NW21G30   30.21R WCI  22
WHEATON        CLOUDY    32  21  64 N18G28    30.45R WCI  20
BRAINERD       CLOUDY    35  18  49 N23G37    30.29R WCI  23
6HR MIN TEMP:  35; 6HR MAX TEMP:  40;

HIBBING        PTCLDY    31  17  56 N28G35    30.24R WCI  17
6HR MIN TEMP:  31; 6HR MAX TEMP:  42; 6HR PCP:  0.01;

ALEXANDRIA     CLOUDY    35  24  64 N22G37    30.33R WCI  23
6HR MIN TEMP:  35; 6HR MAX TEMP:  43;

SAINT CLOUD    CLOUDY    42  25  50 N15G25    30.25R
6HR MIN TEMP:  42; 6HR MAX TEMP:  47; 6HR PCP: TRACE;

MINNEAPOLIS    CLOUDY    43  30  60 N17G29    30.20R
6HR MIN TEMP:  43; 6HR MAX TEMP:  49;

$$

  *****  WEATHER ACROSS SOUTH DAKOTA  *****

CITY           SKY/WX    TMP DP  RH WIND       PRES   REMARKS
SIOUX FALLS    CLOUDY    40  32  73 N26G35    30.33R
6HR MIN TEMP:  40; 6HR MAX TEMP:  54; 6HR PCP: TRACE;

BROOKINGS      NOT AVBL
WATERTOWN      CLOUDY    33  26  75 N23G33    30.37R WCI  21
6HR MIN TEMP:  33; 6HR MAX TEMP:  41;

HURON          CLOUDY    38  29  70 N17G25    30.42R
6HR MIN TEMP:  38; 6HR MAX TEMP:  45;

SISSETON         N/A     34  25  69 N22G31    30.42R WCI  22
ABERDEEN       CLOUDY    35  26  69 N21G29    30.46R WCI  24
6HR MIN TEMP:  35; 6HR MAX TEMP:  45;

MITCHELL       CLOUDY    42  32  67 N15G24    30.40R
PIERRE         MOCLDY    37  30  75 N12       30.45R
6HR MIN TEMP:  37; 6HR MAX TEMP:  48;

MOBRIDGE       CLOUDY    37  30  75 N13       30.46R
RAPID CITY     CLEAR     39  31  72 NE7       30.41R
6HR MIN TEMP:  39; 6HR MAX TEMP:  54;

$$

  *****  SOME WEATHER IN NEARBY STATES *****

CITY           SKY/WX    TMP DP  RH WIND       PRES   REMARKS
GLASGOW MT     CLOUDY    35  29  78 E15G23    30.40S
6HR MIN TEMP:  35; 6HR MAX TEMP:  37;

GREAT FALLS MT MOCLDY    55  33  43 E10       30.12F
6HR MIN TEMP:  51; 6HR MAX TEMP:  58;

CHEYENNE WY    CLEAR     50  26  39 E7        30.37R
6HR MIN TEMP:  49; 6HR MAX TEMP:  60;

SCOTTSBLUFF NE CLEAR     51  31  46 NE9       30.33R
6HR MIN TEMP:  51; 6HR MAX TEMP:  65;

OMAHA NE       PTCLDY    53  40  61 NW20G26   30.19R
6HR MIN TEMP:  53; 6HR MAX TEMP:  63;

DES MOINES IA  PTCLDY    56  38  50 N12       30.09R
6HR MIN TEMP:  56; 6HR MAX TEMP:  63;

DAVENPORT IA   CLOUDY    48  37  65 CALM      30.09R
6HR MIN TEMP:  47; 6HR MAX TEMP:  52; 6HR PCP:  0.01;

CHICAGO IL     CLOUDY    48  36  63 W5        30.06S
6HR MIN TEMP:  48; 6HR MAX TEMP:  51;

EAU CLAIRE WI  CLOUDY    42  31  64 NW8       30.13R
6HR MIN TEMP:  42; 6HR MAX TEMP:  49;

LA CROSSE WI   CLOUDY    45  38  76 CALM      30.09S
6HR MIN TEMP:  45; 6HR MAX TEMP:  47; 6HR PCP: TRACE;

$$

  *****  SOME NATIONAL WEATHER *****

CITY           SKY/WX    TMP DP  RH WIND       PRES   REMARKS
LA GUARDIA NY  PTCLDY    53  37  54 NW15      30.01R
6HR MIN TEMP:  53; 6HR MAX TEMP:  58;

RALEIGH NC     CLEAR     53  45  74 NE3       30.00S
6HR MIN TEMP:  52; 6HR MAX TEMP:  67;

ATLANTA GA     CLEAR     57  38  48 NW7       29.99S
6HR MIN TEMP:  57; 6HR MAX TEMP:  68;

NEW ORLEANS LA CLEAR     67  44  43 NW5       30.04R
6HR MIN TEMP:  67; 6HR MAX TEMP:  74;

OKLAHOMA CITY  CLEAR     68  35  29 N7        30.14R
6HR MIN TEMP:  68; 6HR MAX TEMP:  77;

ALBUQUERQUE NM PTCLDY    70  18  13 SW3       30.26S
6HR MIN TEMP:  62; 6HR MAX TEMP:  72;

SALT LAKE CITY PTCLDY    61  39  44 W8        30.13F
6HR MIN TEMP:  61; 6HR MAX TEMP:  69;

LOS ANGELES CA CLOUDY    67  60  78 W12       29.94S
6HR MIN TEMP:  67; 6HR MAX TEMP:  75;




USA.gov is the U.S. government's official web portal to all federal, state and local government web resources and services.